Terminal Aerodrome Forecast
Issued by NWS

Home | Current Version | Previous Version | Text Only | Print | Product List | Glossary On
Versions: 1 2 3 4 5 6 7 8 9 10 11 12 13 14 15 16 17 18
250
FTUS41 KBTV 271025 AAD
TAFSLK
TAF AMD
KSLK 271025Z 2710/2806 VRB03KT 1/4SM FG OVC002
      TEMPO 2710/2712 2SM BR SCT002
     FM271200 VRB03KT P6SM SCT015
     FM271400 01004KT P6SM SCT035=

USA.gov is the U.S. government's official web portal to all federal, state and local government web resources and services.